Location: Caixon
(43.4106°N, 0.0273°E)
Time: 22:05:04
(UTC+00:00)

Cosmos 1626 - Pass Details

Date: 16 October 2021
Orbit: 487 x 492 km, 82.5° (Epoch: 07 December)

Event Time Altitude Azimuth Distance (km) Brightness Sun altitude
Rises 05:07:42 0° 168° (SSE) 2,555 5.9 -13.0°
Reaches altitude 10° 05:09:54 10° 160° (SSE) 1,679 5.1 -12.6°
Maximum altitude 05:13:17 36° 92° (E) 798 3.9 -12.0°
Drops below altitude 10° 05:16:42 10° 25° (NNE) 1,696 5.1 -11.4°
Sets 05:18:55 0° 17° (NNE) 2,584 6.0 -11.0°
